Regional Weather Roundup
Issued by NWS

Home | Current Version | Previous Version | Text Only | Print | Product List | Glossary On
Versions: 1 2 3 4 5 6 7 8 9 10 11 12 13 14 15 16 17 18 19 20 21 22 23 24 25 26 27 28 29 30 31 32 33 34 35 36 37 38 39 40 41 42 43 44 45 46 47 48 49 50
000
ASUS43 KMKX 210911
RWRWI

WISCONSIN REGIONAL WEATHER ROUNDUP
NATIONAL WEATHER SERVICE MILWAUKEE/SULLIVAN WI
400 AM CDT TUE APR 21 2015

NOTE: "FAIR" INDICATES FEW OR NO CLOUDS BELOW 12,000 FEET WITH NO
SIGNIFICANT WEATHER AND/OR OBSTRUCTIONS TO VISIBILITY.

WIZ001-002-006>008-014>016-023>028-211000-
NORTHWEST WISCONSIN

CITY           SKY/WX    TMP DP  RH WIND       PRES   REMARKS
SUPERIOR ARPT  CLOUDY    33  28  80 W13G18    29.40S WCI  24
ASHLAND        CLOUDY    33  31  92 W9        29.35S WCI  25
HAYWARD        LGT SNOW  32  29  88 VRB6      29.39S FOG     WCI  26
SIREN          CLOUDY    33  30  88 W10       29.45R WCI  25
CUMBERLAND     LGT SNOW  32  30  93 W15G30    29.43R WCI  22
RICE LAKE      LGT SNOW  33  31  92 W12       29.45R WCI  24
CHETEK         LGT SNOW  33  30  90 W9G16     29.44R WCI  25
LADYSMITH      FLURRIES  34  31  90 W10       29.42R WCI  26
EAU CLAIRE     FLURRIES  34  29  82 W15G23    29.46S WCI  24
MENOMONIE      FLURRIES  34  31  88 W14       29.48S WCI  25
NEW RICHMOND   CLOUDY    34  27  75 W16       29.48S WCI  23
OSCEOLA        CLOUDY    35  27  70 W16G22    29.51R WCI  25
$$

WIZ003>005-009-010-017-018-211000-
NORTH CENTRAL WISCONSIN

CITY           SKY/WX    TMP DP  RH WIND       PRES   REMARKS
MANITOWISH WTR LGT SNOW  31  31  99 W12G17    29.30S WCI  22
ARBOR VITAE    LGT SNOW  33  31  92 W10       29.31S WCI  25
WOODRUFF       LGT SNOW  33  31  92 W10       29.31S WCI  25
RHINELANDER    LGT SNOW  32  29  88 W13       29.33S FOG     WCI  22
EAGLE RIVER    LGT SNOW  32  31  95 W10       29.30R WCI  24
LAND O LAKES   LGT SNOW  32  31  94 W8        29.29S WCI  25
PHILLIPS       LGT SNOW  31  29  92 W8        29.35S WCI  24
TOMAHAWK       LGT SNOW  32  29  90 W5        29.36S WCI  27
MEDFORD        FLURRIES  32  29  90 W12G22    29.39R WCI  23
MERRILL        LGT SNOW  33  32  96 W9        29.37S WCI  25
$$

WIZ029-030-035-036-043>047-211000-
CENTRAL WISCONSIN

CITY           SKY/WX    TMP DP  RH WIND       PRES   REMARKS
WAUSAU         FLURRIES  34  30  85 W15       29.37F WCI  24
MOSINEE        CLOUDY    32  32 100 W15G25    29.41S WCI  22
MARSHFIELD     LGT SNOW  34  30  85 W15       29.42S FOG     WCI  24
STEVENS POINT  MIX PCPN  32  30  94 W8        29.42F WCI  25
WAUPACA        CLOUDY    38  31  77 SW8       29.43F WCI  32
WAUTOMA        MIX PCPN  36  34  92 SW13      29.46S WCI  27
WISC RAPIDS    CLOUDY    35  29  78 W10G22    29.45S WCI  27
CAMP DOUGLAS   CLOUDY    36  36 100 W10       29.48R WCI  28
$$

WIZ011>013-019>022-031-037>040-048>050-211000-
NORTHEAST WISCONSIN

CITY           SKY/WX    TMP DP  RH WIND       PRES   REMARKS
ANTIGO         LGT SNOW  32  31  95 W12G20    29.35F WCI  23
SHAWANO        CLOUDY    38  31  77 W9        29.40S WCI  31
OCONTO         CLOUDY    37  30  75 SW10      29.38S WCI  30
STURGEON BAY   CLOUDY    37  28  70 SW9       29.40S WCI  31
GREEN BAY      CLOUDY    38  31  76 W18       29.41S WCI  28
MANITOWOC      LGT RAIN  40  32  73 W13G21    29.42F WCI  32
APPLETON       CLOUDY    36  30  80 W14G20    29.43S WCI  27
CLINTONVILLE   CLOUDY    36  32  87 W7        29.41S WCI  30
OSHKOSH        CLOUDY    37  31  78 W7        29.44S WCI  32
$$

WIZ032>034-041-042-053>061-211000-
SOUTHWEST WISCONSIN

CITY           SKY/WX    TMP DP  RH WIND       PRES   REMARKS
LA CROSSE      CLOUDY    38  32  79 W13       29.53R WCI  30
SPARTA         LGT RAIN  36  31  82 W9G18     29.51R WCI  29
VIROQUA        CLOUDY    33  33 100 W13G26    29.51S WCI  23
BOSCOBEL       CLOUDY    41  29  62 W15G24    29.56S
PRAIRIE DU CHI CLOUDY    40  30  67 W12G22    29.58S WCI  32
PLATTEVILLE    MOCLDY    38  31  74 W20G25    29.57F WCI  28
$$

WIZ056-057-062-063-064-067-068-211000-
SOUTH CENTRAL WISCONSIN

CITY           SKY/WX    TMP DP  RH WIND       PRES   REMARKS
REEDSBURG      MOCLDY    33  32  94 W8        29.50R WCI  27
BARABOO/DELLS  DRIZZLE   36  32  85 W10G24    29.49S WCI  28
LONE ROCK      CLOUDY    40  29  64 W20       29.53S WCI  30
MINERAL POINT  PTCLDY    37  32  81 W16G23    29.54S WCI  28
MADISON        MOCLDY    39  28  64 W8G17     29.50F WCI  33
MIDDLETON      MOCLDY    40  28  63 W16G23    29.51S WCI  31
WATERTOWN      CLOUDY    38  32  77 SW12G17   29.49S WCI  31
MONROE         CLEAR     36  32  87 W21       29.55R WCI  24
JANESVILLE     CLEAR     37  30  75 W12       29.54S WCI  30
$$

WIZ051-052-058>065-066-070>072-211000-
SOUTHEAST WISCONSIN

CITY           SKY/WX    TMP DP  RH WIND       PRES   REMARKS
MILWAUKEE      MOCLDY    40  29  64 SW14G25   29.51F WCI  32
WAUKESHA       MOCLDY    36  30  80 SW17      29.50F WCI  25
MILWAUKEE/TIMM CLOUDY    39  30  70 SW16G24   29.50S WCI  30
RACINE         PTCLDY    39  29  67 SW12G20   29.54S WCI  32
BURLINGTON     CLEAR     36  29  77 SW14      29.53S WCI  27
KENOSHA        CLEAR     38  31  76 W17       29.54S WCI  28
FOND DU LAC    LGT RAIN  39  31  72 W13G18    29.45F WCI  31
SHEBOYGAN      CLOUDY    39  31  72 W15       29.45S WCI  31
WEST BEND      CLOUDY    37  30  75 SW14      29.47S WCI  29
JUNEAU         CLOUDY    37  31  78 W14G21    29.49S WCI  29
$$

LSZ147-162-211000-
LAKE SUPERIOR

STATION/POSITION TIME  TEMP    WIND        PRES    WAVE
                       AIR SEA DIR/SP/G            HT/PER
                 (UTC) (F)     (DEG/KT/KT) (MB)    (FT/S)
DEVILS ISLAND    0900   35     260/ 20/ 25  992.9R
PORT WING        0800   35     260/ 14/ 23  994.6S
SAXON HARBOR     0800   34     230/  4/ 11  993.2S
$$

LMZ867-665-643>646-211000-
LAKE MICHIGAN

STATION/POSITION TIME  TEMP    WIND        PRES    WAVE
                       AIR SEA DIR/SP/G            HT/PER
                 (UTC) (F)     (DEG/KT/KT) (MB)    (FT/S)
CHAMBERS ISLAND  0800   38     200/  5/ 14  994.9F
NORTHPORT PIER   0800   38     230/  5/ 12  994.6F
SISTER BAY       0832   39     250/ 15/ 19   N/A
KEWAUNEE LAKESHO 0800   40     240/  7/ 11  995.4F
SHEBOYGAN LAKESH 0900   40     240/ 14/ 18  997.8S
PORT WASHINGTON  0800   41     240/ 11/ 17  999.3F
MILWAUKEE LAKESH 0800   42     240/ 14/ 19   N/A
KENOSHA   LAKESH 0900   41     240/ 15/ 21 1000.7S
$$

TC  - TEMPERATURE IN CELSIUS
VSB - VISIBILITY IN STATUTE MILES
WCI - WIND CHILL INDEX
HX  - HEAT INDEX




USA.gov is the U.S. government's official web portal to all federal, state and local government web resources and services.